UAE245 FXMM-FAOR

Flight info

Callsign UAE245
Flight time 0h 41m
Altitude 15000
Route MZV IMGEV UZ5 STV STV1D
Aircraft A333/H-VGD/A

Departure

Time 2026-05-08 16:01
Airport Moshoeshoe I International Airport (FXMM)

Arrival

Time 2026-05-08 16:42
Airport O.R. Tambo International Airport (FAOR)
Time Latitude Longitude Altitude Speed Heading
2026-05-08 15:56 -29.45907 27.55780 5370 ft 0 kts 12°
2026-05-08 15:59 -29.45903 27.55780 5370 ft 3 kts 10°
2026-05-08 15:59 -29.45844 27.55686 5370 ft 27 kts 278°
2026-05-08 15:59 -29.45924 27.55551 5368 ft 22 kts 198°
2026-05-08 16:00 -29.46108 27.55492 5364 ft 32 kts 194°
2026-05-08 16:00 -29.46219 27.55320 5359 ft 28 kts 266°
2026-05-08 16:00 -29.46131 27.55286 5358 ft 28 kts 13°
2026-05-08 16:00 -29.45678 27.55434 5360 ft 106 kts 13°
2026-05-08 16:01 -29.44721 27.55727 5361 ft 177 kts 13°
2026-05-08 16:01 -29.43380 27.56121 5721 ft 203 kts
2026-05-08 16:01 -29.42100 27.56463 6740 ft 201 kts 11°
2026-05-08 16:01 -29.40665 27.57016 7279 ft 238 kts 18°
2026-05-08 16:02 -29.39151 27.57820 8496 ft 238 kts 24°
2026-05-08 16:02 -29.37711 27.58648 9603 ft 238 kts 24°
2026-05-08 16:02 -29.36221 27.59516 10588 ft 243 kts 24°
2026-05-08 16:02 -29.34726 27.60426 11532 ft 251 kts 26°
2026-05-08 16:03 -29.33192 27.61441 12491 ft 258 kts 26°
2026-05-08 16:03 -29.31638 27.62499 13437 ft 265 kts 26°
2026-05-08 16:03 -29.30065 27.63586 14356 ft 273 kts 26°
2026-05-08 16:03 -29.28440 27.64729 15308 ft 280 kts 26°
2026-05-08 16:04 -29.26785 27.65910 16276 ft 284 kts 26°
2026-05-08 16:04 -29.25088 27.67134 17015 ft 291 kts 26°
2026-05-08 16:04 -29.23338 27.68397 16926 ft 311 kts 26°
2026-05-08 16:04 -29.21456 27.69745 17025 ft 326 kts 26°
2026-05-08 16:05 -29.19440 27.71131 16994 ft 343 kts 25°
2026-05-08 16:05 -29.17304 27.72517 17004 ft 360 kts 25°
2026-05-08 16:05 -29.15077 27.73954 16990 ft 376 kts 25°
2026-05-08 16:05 -29.12752 27.75444 16989 ft 390 kts 25°
2026-05-08 16:06 -29.10343 27.76974 16991 ft 404 kts 25°
2026-05-08 16:06 -29.07843 27.78558 16987 ft 417 kts 25°
2026-05-08 16:06 -29.05269 27.80185 16986 ft 424 kts 25°
2026-05-08 16:06 -29.02708 27.81803 16972 ft 419 kts 25°
2026-05-08 16:07 -29.00192 27.83402 16967 ft 411 kts 25°
2026-05-08 16:07 -28.97693 27.84997 16988 ft 411 kts 25°
2026-05-08 16:07 -28.95174 27.86606 16984 ft 412 kts 25°
2026-05-08 16:07 -28.92684 27.88200 16984 ft 413 kts 25°
2026-05-08 16:08 -28.90156 27.89767 16986 ft 412 kts 23°
2026-05-08 16:08 -28.87602 27.91275 16988 ft 411 kts 23°
2026-05-08 16:08 -28.85062 27.92775 16988 ft 412 kts 23°
2026-05-08 16:08 -28.82502 27.94296 16988 ft 411 kts 23°
2026-05-08 16:09 -28.79969 27.95801 16986 ft 412 kts 23°
2026-05-08 16:09 -28.78260 27.96818 16985 ft 412 kts 23°
2026-05-08 16:09 -28.74894 27.98823 16984 ft 411 kts 23°
2026-05-08 16:09 -28.72344 28.00343 16988 ft 412 kts 23°
2026-05-08 16:10 -28.69793 28.01866 16987 ft 412 kts 23°
2026-05-08 16:10 -28.67269 28.03377 16986 ft 412 kts 23°
2026-05-08 16:10 -28.64735 28.04898 16984 ft 412 kts 23°
2026-05-08 16:10 -28.62177 28.06434 16992 ft 412 kts 24°
2026-05-08 16:11 -28.59646 28.07954 16987 ft 413 kts 24°
2026-05-08 16:11 -28.57126 28.09473 16989 ft 413 kts 24°
2026-05-08 16:11 -28.54579 28.11010 16988 ft 413 kts 24°
2026-05-08 16:11 -28.52034 28.12552 16989 ft 412 kts 24°
2026-05-08 16:12 -28.49513 28.14081 16983 ft 412 kts 24°
2026-05-08 16:12 -28.46965 28.15628 16993 ft 412 kts 24°
2026-05-08 16:12 -28.44452 28.17156 16986 ft 413 kts 24°
2026-05-08 16:12 -28.41896 28.18714 16989 ft 412 kts 24°
2026-05-08 16:13 -28.39372 28.20238 16987 ft 411 kts 21°
2026-05-08 16:13 -28.36695 28.21275 16992 ft 405 kts 11°
2026-05-08 16:13 -28.33976 28.22139 17000 ft 406 kts 11°
2026-05-08 16:13 -28.31226 28.23009 16987 ft 406 kts 11°
2026-05-08 16:14 -28.28507 28.23878 16998 ft 406 kts 11°
2026-05-08 16:14 -28.25803 28.24745 16986 ft 406 kts 11°
2026-05-08 16:14 -28.23072 28.25622 16992 ft 406 kts 11°
2026-05-08 16:14 -28.20331 28.26511 16992 ft 405 kts 11°
2026-05-08 16:15 -28.17618 28.27393 16988 ft 406 kts 11°
2026-05-08 16:15 -28.14908 28.28277 16992 ft 406 kts 11°
2026-05-08 16:15 -28.12198 28.29163 16992 ft 405 kts 11°
2026-05-08 16:15 -28.09467 28.30059 16982 ft 405 kts 11°
2026-05-08 16:16 -28.06766 28.30944 16987 ft 405 kts 11°
2026-05-08 16:16 -28.04048 28.31838 16986 ft 406 kts 11°
2026-05-08 16:16 -28.01335 28.32732 16983 ft 407 kts 11°
2026-05-08 16:16 -27.98630 28.33628 16985 ft 407 kts 11°
2026-05-08 16:17 -27.95886 28.34541 16982 ft 407 kts 12°
2026-05-08 16:17 -27.94091 28.35141 16984 ft 408 kts 12°
2026-05-08 16:17 -27.90466 28.36350 16981 ft 407 kts 12°
2026-05-08 16:17 -27.87715 28.37275 16985 ft 407 kts 12°
2026-05-08 16:18 -27.85010 28.38186 16985 ft 406 kts 12°
2026-05-08 16:18 -27.82309 28.39097 16982 ft 407 kts 12°
2026-05-08 16:18 -27.79585 28.40021 16988 ft 407 kts 12°
2026-05-08 16:18 -27.76868 28.40949 16988 ft 406 kts 12°
2026-05-08 16:19 -27.74142 28.41882 16979 ft 406 kts 12°
2026-05-08 16:19 -27.71442 28.42814 16992 ft 407 kts 12°
2026-05-08 16:19 -27.68719 28.43755 16995 ft 407 kts 12°
2026-05-08 16:19 -27.66007 28.44691 16987 ft 407 kts 12°
2026-05-08 16:20 -27.63325 28.45625 16995 ft 407 kts 12°
2026-05-08 16:20 -27.60597 28.46576 16992 ft 408 kts 12°
2026-05-08 16:20 -27.57885 28.47522 16995 ft 408 kts 12°
2026-05-08 16:20 -27.55173 28.48469 16992 ft 408 kts 12°
2026-05-08 16:21 -27.52462 28.49416 16994 ft 408 kts 12°
2026-05-08 16:21 -27.49731 28.50375 16992 ft 408 kts 12°
2026-05-08 16:21 -27.47038 28.51321 16993 ft 407 kts 12°
2026-05-08 16:21 -27.44300 28.52286 16995 ft 408 kts 12°
2026-05-08 16:22 -27.41649 28.53388 16993 ft 411 kts 18°
2026-05-08 16:22 -27.39013 28.54618 17000 ft 410 kts 18°
2026-05-08 16:22 -27.36363 28.55858 16987 ft 411 kts 18°
2026-05-08 16:22 -27.33701 28.57106 16992 ft 410 kts 18°
2026-05-08 16:23 -27.31079 28.58342 16987 ft 412 kts 18°
2026-05-08 16:23 -27.28437 28.59593 16989 ft 412 kts 18°
2026-05-08 16:23 -27.25777 28.60849 16984 ft 411 kts 18°
2026-05-08 16:23 -27.23151 28.62089 16984 ft 411 kts 18°
2026-05-08 16:24 -27.20524 28.63340 16987 ft 411 kts 18°
2026-05-08 16:24 -27.17852 28.64610 16985 ft 411 kts 18°
2026-05-08 16:24 -27.15223 28.65864 16979 ft 411 kts 17°
2026-05-08 16:24 -27.12589 28.67120 16974 ft 410 kts 17°
2026-05-08 16:25 -27.09956 28.68381 16978 ft 411 kts 17°
2026-05-08 16:25 -27.07325 28.69647 16975 ft 411 kts 18°
2026-05-08 16:25 -27.04698 28.70908 16974 ft 411 kts 17°
2026-05-08 16:25 -27.02042 28.72188 16981 ft 412 kts 18°
2026-05-08 16:26 -26.99429 28.73448 16973 ft 412 kts 18°
2026-05-08 16:26 -26.96777 28.74728 16978 ft 411 kts 18°
2026-05-08 16:26 -26.94162 28.75992 16981 ft 412 kts 18°
2026-05-08 16:26 -26.91514 28.77274 16982 ft 411 kts 18°
2026-05-08 16:27 -26.88898 28.78555 16980 ft 411 kts 19°
2026-05-08 16:27 -26.86242 28.79845 16985 ft 412 kts 18°
2026-05-08 16:27 -26.83619 28.81138 16979 ft 411 kts 18°
2026-05-08 16:27 -26.80991 28.82431 16985 ft 411 kts 18°
2026-05-08 16:28 -26.78397 28.83713 16989 ft 411 kts 18°
2026-05-08 16:28 -26.75750 28.85033 16989 ft 411 kts 19°
2026-05-08 16:28 -26.73152 28.86345 16988 ft 413 kts 18°
2026-05-08 16:28 -26.70466 28.87469 17000 ft 403 kts
2026-05-08 16:29 -26.67732 28.87632 16976 ft 389 kts 348°
2026-05-08 16:29 -26.65184 28.86803 16987 ft 378 kts 329°
2026-05-08 16:29 -26.63033 28.85187 17001 ft 360 kts 318°
2026-05-08 16:29 -26.61066 28.83506 16987 ft 358 kts 318°
2026-05-08 16:30 -26.59113 28.81757 16990 ft 356 kts 314°
2026-05-08 16:30 -26.57286 28.79870 17000 ft 357 kts 313°
2026-05-08 16:30 -26.55467 28.77998 16999 ft 357 kts 313°
2026-05-08 16:30 -26.53624 28.76108 16994 ft 357 kts 314°
2026-05-08 16:31 -26.51801 28.74241 17003 ft 358 kts 314°
2026-05-08 16:31 -26.49964 28.72361 16999 ft 359 kts 314°
2026-05-08 16:31 -26.48114 28.70469 16992 ft 358 kts 314°
2026-05-08 16:31 -26.46270 28.68601 16993 ft 359 kts 314°
2026-05-08 16:32 -26.44434 28.66729 17000 ft 359 kts 314°
2026-05-08 16:32 -26.42611 28.64863 16994 ft 358 kts 314°
2026-05-08 16:32 -26.40784 28.62973 17003 ft 359 kts 314°
2026-05-08 16:32 -26.39152 28.60898 16975 ft 355 kts 302°
2026-05-08 16:33 -26.37544 28.58808 16934 ft 358 kts 317°
2026-05-08 16:33 -26.35366 28.57466 16884 ft 352 kts 336°
2026-05-08 16:33 -26.32961 28.57105 16745 ft 351 kts 355°
2026-05-08 16:33 -26.30527 28.57370 16262 ft 352 kts 360°
2026-05-08 16:34 -26.28089 28.57663 15766 ft 350 kts 359°
2026-05-08 16:34 -26.25669 28.57946 15325 ft 347 kts 360°
2026-05-08 16:34 -26.23280 28.58217 14867 ft 344 kts 360°
2026-05-08 16:34 -26.20896 28.58480 14387 ft 343 kts 360°
2026-05-08 16:35 -26.18522 28.58734 13921 ft 341 kts 358°
2026-05-08 16:35 -26.16192 28.58981 13454 ft 338 kts 360°
2026-05-08 16:35 -26.13859 28.59056 12981 ft 330 kts 348°
2026-05-08 16:35 -26.11665 28.58450 12635 ft 319 kts 339°
2026-05-08 16:36 -26.09561 28.57769 12165 ft 315 kts 340°
2026-05-08 16:36 -26.07462 28.57066 11058 ft 319 kts 338°
2026-05-08 16:36 -26.05346 28.56328 9962 ft 321 kts 339°
2026-05-08 16:36 -26.03242 28.55592 8867 ft 321 kts 338°
2026-05-08 16:37 -26.01126 28.54801 7929 ft 315 kts 338°
2026-05-08 16:37 -25.99328 28.53728 8070 ft 282 kts 315°
2026-05-08 16:37 -25.98177 28.51985 8036 ft 286 kts 291°
2026-05-08 16:37 -25.97700 28.49833 8024 ft 290 kts 279°
2026-05-08 16:38 -25.97354 28.47579 8010 ft 294 kts 280°
2026-05-08 16:38 -25.97015 28.45351 8008 ft 296 kts 280°
2026-05-08 16:38 -25.96668 28.43073 8001 ft 298 kts 281°
2026-05-08 16:38 -25.96308 28.40791 8006 ft 299 kts 277°
2026-05-08 16:39 -25.96400 28.38498 8075 ft 299 kts 251°
2026-05-08 16:39 -25.97426 28.36501 8099 ft 302 kts 227°
2026-05-08 16:39 -25.98922 28.34856 8010 ft 302 kts 225°
2026-05-08 16:39 -26.00444 28.33270 7987 ft 299 kts 226°
2026-05-08 16:40 -26.01900 28.31727 8064 ft 280 kts 223°
2026-05-08 16:40 -26.03279 28.30308 7880 ft 254 kts 226°
2026-05-08 16:40 -26.04485 28.28952 7223 ft 242 kts 229°
2026-05-08 16:40 -26.05837 28.28015 6678 ft 229 kts 199°
2026-05-08 16:41 -26.07464 28.27661 6416 ft 242 kts 196°
2026-05-08 16:41 -26.09108 28.27133 6392 ft 247 kts 196°
2026-05-08 16:41 -26.10738 28.26636 6246 ft 238 kts 195°
2026-05-08 16:42 -26.13726 28.25674 5536 ft 207 kts 196°
2026-05-08 16:42 -26.15009 28.25278 5546 ft 164 kts 197°
2026-05-08 16:42 -26.15712 28.25025 5541 ft 36 kts 210°
2026-05-08 16:42 -26.15875 28.24877 5538 ft 17 kts 216°
2026-05-08 16:43 -26.15911 28.24825 5536 ft 0 kts 262°
2026-05-08 16:43 -26.15910 28.24822 5536 ft 2 kts 277°
2026-05-08 16:43 -26.15822 28.24810 5539 ft 26 kts 14°
2026-05-08 16:43 -26.15591 28.24879 5546 ft 22 kts 15°
2026-05-08 16:44 -26.15575 28.24884 5546 ft 1 kts 17°
2026-05-08 16:44 -26.15493 28.24913 5547 ft 24 kts 17°
2026-05-08 16:44 -26.15308 28.24902 5549 ft 19 kts 18°
2026-05-08 16:44 -26.15175 28.25007 5549 ft 29 kts 14°
2026-05-08 16:45 -26.14983 28.25089 5547 ft 28 kts 17°
2026-05-08 16:45 -26.14829 28.25182 5545 ft 18 kts
2026-05-08 16:45 -26.14748 28.25149 5544 ft 10 kts 349°
2026-05-08 16:45 -26.14646 28.25170 5542 ft 21 kts 18°
2026-05-08 16:46 -26.14527 28.25210 5537 ft 0 kts 18°
2026-05-08 16:46 -26.14515 28.25212 5536 ft 8 kts
2026-05-08 16:46 -26.14419 28.25154 5533 ft 22 kts 316°
2026-05-08 16:46 -26.14274 28.24996 5528 ft 35 kts 316°
2026-05-08 16:47 -26.14074 28.24779 5523 ft 43 kts 315°
2026-05-08 16:47 -26.13856 28.24540 5520 ft 43 kts 315°
2026-05-08 16:47 -26.13644 28.24309 5521 ft 41 kts 315°
2026-05-08 16:47 -26.13449 28.24099 5529 ft 36 kts 316°
2026-05-08 16:48 -26.13350 28.23991 5534 ft 0 kts 315°
2026-05-08 16:50 -26.13348 28.23989 5534 ft 3 kts 315°
2026-05-08 16:50 -26.13313 28.23951 5535 ft 10 kts 316°
2026-05-08 16:51 -26.13247 28.23883 5538 ft 15 kts 317°
2026-05-08 16:51 -26.13163 28.23787 5542 ft 4 kts 306°
2026-05-08 16:51 -26.13163 28.23786 5542 ft 0 kts 304°
2026-05-08 16:52 -26.13152 28.23766 5543 ft 13 kts 300°
2026-05-08 16:52 -26.13013 28.23734 5542 ft 26 kts 15°
2026-05-08 16:52 -26.12956 28.23751 5540 ft 0 kts 14°
2026-05-08 16:53 -26.12866 28.23777 5536 ft 12 kts 356°
2026-05-08 16:53 -26.12830 28.23717 5539 ft 8 kts 286°
2026-05-08 16:53 -26.12864 28.23651 5543 ft 7 kts 194°
2026-05-08 16:54 -26.12916 28.23655 5544 ft 5 kts 187°
2026-05-08 16:54 -26.12923 28.23654 5544 ft 0 kts 187°